| time (UTC) | temp C | wind direction | speed KPH | gust KPH | rain 1hr cm | rain 24hr cm | rain mn cm | humidity % | barometer mb |
| 20260503194001 | 18 | 220 | 11.3 | 35.4 | 0.00 | 0.00 | 0.00 | 39 | 1009.0 |
| 20260503193900 | 18 | 219 | 12.9 | 35.4 | 0.00 | 0.00 | 0.00 | 37 | 1009.0 |
| 20260503193522 | 18 | 218 | 12.9 | 35.4 | 0.00 | 0.00 | 0.00 | 37 | 1009.2 |
| 20260503193400 | 18 | 219 | 11.3 | 35.4 | 0.00 | 0.00 | 0.00 | 37 | 1009.3 |
| 20260503193002 | 18 | 232 | 11.3 | 33.8 | 0.00 | 0.00 | 0.00 | 38 | 1009.0 |
| 20260503192900 | 18 | 240 | 11.3 | 25.7 | 0.00 | 0.00 | 0.00 | 39 | 1009.0 |
| 20260503192502 | 18 | 247 | 12.9 | 27.4 | 0.00 | 0.00 | 0.00 | 41 | 1009.1 |
| 20260503192400 | 18 | 244 | 14.5 | 27.4 | 0.00 | 0.00 | 0.00 | 40 | 1009.1 |
| 20260503192001 | 17 | 245 | 16.1 | 33.8 | 0.00 | 0.00 | 0.00 | 40 | 1009.3 |
| 20260503191900 | 17 | 242 | 17.7 | 33.8 | 0.00 | 0.00 | 0.00 | 40 | 1009.3 |
| 20260503191501 | 17 | 239 | 17.7 | 40.2 | 0.00 | 0.00 | 0.00 | 39 | 1009.4 |
| 20260503191400 | 17 | 242 | 17.7 | 40.2 | 0.00 | 0.00 | 0.00 | 40 | 1009.4 |
| 20260503191002 | 17 | 234 | 16.1 | 40.2 | 0.00 | 0.00 | 0.00 | 38 | 1009.5 |
| 20260503190900 | 18 | 233 | 16.1 | 40.2 | 0.00 | 0.00 | 0.00 | 37 | 1009.6 |
| 20260503190502 | 18 | 230 | 16.1 | 33.8 | 0.00 | 0.00 | 0.00 | 38 | 1009.5 |
| 20260503190400 | 18 | 227 | 16.1 | 33.8 | 0.00 | 0.00 | 0.00 | 38 | 1009.5 |
| 20260503190001 | 18 | 223 | 12.9 | 24.1 | 0.00 | 0.00 | 0.00 | 37 | 1009.8 |
| 20260503185900 | 18 | 226 | 12.9 | 27.4 | 0.00 | 0.00 | 0.00 | 37 | 1009.8 |
| 20260503185503 | 18 | 223 | 12.9 | 35.4 | 0.00 | 0.00 | 0.00 | 37 | 1010.0 |
| 20260503185400 | 19 | 224 | 12.9 | 35.4 | 0.00 | 0.00 | 0.00 | 38 | 1010.0 |
| 20260503185002 | 19 | 225 | 12.9 | 35.4 | 0.00 | 0.00 | 0.00 | 38 | 1010.0 |
| 20260503184900 | 19 | 227 | 14.5 | 35.4 | 0.00 | 0.00 | 0.00 | 37 | 1010.0 |
| 20260503184502 | 18 | 231 | 14.5 | 30.6 | 0.00 | 0.00 | 0.00 | 37 | 1010.0 |
| 20260503184400 | 18 | 233 | 14.5 | 30.6 | 0.00 | 0.00 | 0.00 | 37 | 1010.0 |
| 20260503184002 | 18 | 240 | 14.5 | 38.6 | 0.00 | 0.00 | 0.00 | 39 | 1010.0 |
| 20260503183900 | 18 | 236 | 12.9 | 38.6 | 0.00 | 0.00 | 0.00 | 40 | 1010.0 |
| 20260503183502 | 18 | 231 | 14.5 | 38.6 | 0.00 | 0.00 | 0.00 | 39 | 1010.0 |
| 20260503183400 | 18 | 231 | 12.9 | 38.6 | 0.00 | 0.00 | 0.00 | 38 | 1010.1 |
| 20260503183002 | 17 | 222 | 12.9 | 29.0 | 0.00 | 0.00 | 0.00 | 39 | 1010.2 |
| 20260503182900 | 17 | 222 | 12.9 | 27.4 | 0.00 | 0.00 | 0.00 | 39 | 1010.2 |
| 20260503182501 | 17 | 227 | 12.9 | 29.0 | 0.00 | 0.00 | 0.00 | 39 | 1010.3 |
| 20260503182400 | 17 | 228 | 12.9 | 29.0 | 0.00 | 0.00 | 0.00 | 39 | 1010.2 |
| 20260503182002 | 17 | 232 | 12.9 | 37.0 | 0.00 | 0.00 | 0.00 | 38 | 1010.4 |
| 20260503181900 | 17 | 231 | 12.9 | 37.0 | 0.00 | 0.00 | 0.00 | 38 | 1010.5 |
| 20260503181503 | 17 | 230 | 14.5 | 37.0 | 0.00 | 0.00 | 0.00 | 38 | 1010.5 |
| 20260503181359 | 17 | 228 | 14.5 | 37.0 | 0.00 | 0.00 | 0.00 | 38 | 1010.4 |
| 20260503181002 | 18 | 226 | 14.5 | 35.4 | 0.00 | 0.00 | 0.00 | 37 | 1010.5 |
| 20260503180859 | 18 | 224 | 16.1 | 35.4 | 0.00 | 0.00 | 0.00 | 38 | 1010.4 |
| 20260503180522 | 18 | 223 | 14.5 | 35.4 | 0.00 | 0.00 | 0.00 | 37 | 1010.4 |
| 20260503180359 | 18 | 222 | 14.5 | 35.4 | 0.00 | 0.00 | 0.00 | 37 | 1010.4 |
| 20260503180001 | 18 | 228 | 14.5 | 35.4 | 0.00 | 0.00 | 0.00 | 37 | 1010.4 |
| 20260503175859 | 18 | 231 | 12.9 | 33.8 | 0.00 | 0.00 | 0.00 | 38 | 1010.5 |
| 20260503175523 | 17 | 227 | 12.9 | 33.8 | 0.00 | 0.00 | 0.00 | 38 | 1010.5 |
| 20260503175359 | 17 | 224 | 12.9 | 33.8 | 0.00 | 0.00 | 0.00 | 37 | 1010.6 |
| 20260503175002 | 17 | 211 | 12.9 | 29.0 | 0.00 | 0.00 | 0.00 | 38 | 1010.8 |
| 20260503174859 | 17 | 209 | 11.3 | 29.0 | 0.00 | 0.00 | 0.00 | 38 | 1010.6 |
| 20260503174522 | 17 | 216 | 11.3 | 27.4 | 0.00 | 0.00 | 0.00 | 37 | 1010.7 |
| 20260503174359 | 17 | 221 | 9.7 | 27.4 | 0.00 | 0.00 | 0.00 | 38 | 1010.8 |
| 20260503174023 | 18 | 232 | 9.7 | 22.5 | 0.00 | 0.00 | 0.00 | 37 | 1010.8 |
| 20260503173859 | 18 | 238 | 11.3 | 22.5 | 0.00 | 0.00 | 0.00 | 38 | 1010.8 |
| 20260503173502 | 18 | 238 | 12.9 | 27.4 | 0.00 | 0.00 | 0.00 | 38 | 1010.8 |
| 20260503173359 | 18 | 242 | 14.5 | 29.0 | 0.00 | 0.00 | 0.00 | 39 | 1010.8 |
| 20260503173002 | 17 | 248 | 14.5 | 29.0 | 0.00 | 0.00 | 0.00 | 39 | 1011.0 |
| 20260503172859 | 17 | 248 | 16.1 | 29.0 | 0.00 | 0.00 | 0.00 | 39 | 1011.0 |
| 20260503172502 | 17 | 252 | 16.1 | 37.0 | 0.00 | 0.00 | 0.00 | 39 | 1011.0 |
| 20260503172359 | 17 | 255 | 16.1 | 37.0 | 0.00 | 0.00 | 0.00 | 38 | 1011.0 |
| 20260503172023 | 17 | 247 | 14.5 | 37.0 | 0.00 | 0.00 | 0.00 | 39 | 1011.1 |
| 20260503171859 | 17 | 248 | 12.9 | 37.0 | 0.00 | 0.00 | 0.00 | 39 | 1011.1 |
| 20260503171501 | 17 | 243 | 12.9 | 35.4 | 0.00 | 0.00 | 0.00 | 39 | 1011.1 |
| 20260503171359 | 17 | 242 | 14.5 | 30.6 | 0.00 | 0.00 | 0.00 | 40 | 1011.2 |
| 20260503171023 | 17 | 250 | 16.1 | 32.2 | 0.00 | 0.00 | 0.00 | 39 | 1011.1 |
| 20260503170859 | 17 | 247 | 16.1 | 32.2 | 0.00 | 0.00 | 0.00 | 38 | 1011.2 |
| 20260503170502 | 17 | 243 | 16.1 | 32.2 | 0.00 | 0.00 | 0.00 | 39 | 1011.3 |
| 20260503170359 | 17 | 241 | 16.1 | 32.2 | 0.00 | 0.00 | 0.00 | 39 | 1011.4 |
| 20260503150857 | 15 | 252 | 14.5 | 33.8 | 0.00 | 0.00 | 0.00 | 43 | 1012.1 |
| 20260503150502 | 15 | 252 | 12.9 | 33.8 | 0.00 | 0.00 | 0.00 | 44 | 1012.1 |
| 20260503150357 | 15 | 255 | 12.9 | 33.8 | 0.00 | 0.00 | 0.00 | 44 | 1012.1 |
| 20260503131355 | 10 | 229 | 9.7 | 20.9 | 0.00 | 0.00 | 0.00 | 53 | 1012.7 |
| 20260503131002 | 10 | 233 | 9.7 | 22.5 | 0.00 | 0.00 | 0.00 | 52 | 1012.7 |
| 20260503130855 | 10 | 237 | 9.7 | 22.5 | 0.00 | 0.00 | 0.00 | 52 | 1012.7 |
| 20260503130523 | 10 | 240 | 9.7 | 22.5 | 0.00 | 0.00 | 0.00 | 53 | 1012.7 |
| 20260503130355 | 10 | 240 | 11.3 | 22.5 | 0.00 | 0.00 | 0.00 | 53 | 1012.6 |
| 20260503110503 | 3 | 223 | 3.2 | 8.0 | 0.00 | 0.00 | 0.00 | 68 | 1013.2 |
| 20260503110353 | 3 | 224 | 3.2 | 8.0 | 0.00 | 0.00 | 0.00 | 68 | 1013.3 |
| 20260503090503 | 4 | 250 | 4.8 | 11.3 | 0.00 | 0.00 | 0.00 | 66 | 1013.9 |
| 20260503090351 | 4 | 253 | 4.8 | 11.3 | 0.00 | 0.00 | 0.00 | 66 | 1014.0 |
| 20260503081502 | 4 | 255 | 4.8 | 12.9 | 0.00 | 0.00 | 0.00 | 65 | 1014.1 |
| 20260503081350 | 4 | 254 | 4.8 | 12.9 | 0.00 | 0.00 | 0.00 | 66 | 1014.1 |
| 20260503081023 | 4 | 255 | 4.8 | 12.9 | 0.00 | 0.00 | 0.00 | 67 | 1014.1 |
| 20260503080850 | 4 | 257 | 4.8 | 12.9 | 0.00 | 0.00 | 0.00 | 68 | 1014.1 |
| 20260503080503 | 4 | 259 | 4.8 | 11.3 | 0.00 | 0.00 | 0.00 | 71 | 1014.1 |
| 20260503080350 | 4 | 264 | 4.8 | 11.3 | 0.00 | 0.00 | 0.00 | 74 | 1014.2 |
| 20260503072850 | 4 | 246 | 3.2 | 11.3 | 0.00 | 0.00 | 0.00 | 68 | 1014.3 |
| 20260503072523 | 4 | 255 | 3.2 | 11.3 | 0.00 | 0.00 | 0.00 | 68 | 1014.2 |
| 20260503072350 | 4 | 257 | 3.2 | 11.3 | 0.00 | 0.00 | 0.00 | 69 | 1014.3 |
| 20260503072003 | 4 | 253 | 3.2 | 11.3 | 0.00 | 0.00 | 0.00 | 71 | 1014.3 |
| 20260503071850 | 4 | 250 | 3.2 | 8.0 | 0.00 | 0.00 | 0.00 | 71 | 1014.2 |
| 20260503071503 | 4 | 249 | 3.2 | 8.0 | 0.00 | 0.00 | 0.00 | 70 | 1014.2 |
| 20260503071349 | 4 | 248 | 3.2 | 8.0 | 0.00 | 0.00 | 0.00 | 71 | 1014.2 |
| 20260503071023 | 3 | 248 | 3.2 | 6.4 | 0.00 | 0.00 | 0.00 | 69 | 1014.2 |
| 20260503070849 | 3 | 248 | 3.2 | 6.4 | 0.00 | 0.00 | 0.00 | 67 | 1014.2 |
| 20260503070503 | 3 | 248 | 3.2 | 6.4 | 0.00 | 0.00 | 0.00 | 66 | 1014.2 |
| 20260503070349 | 3 | 248 | 3.2 | 6.4 | 0.00 | 0.00 | 0.00 | 66 | 1014.3 |
| 20260503055003 | 4 | 279 | 3.2 | 8.0 | 0.00 | 0.00 | 0.00 | 65 | 1014.8 |
| 20260503054848 | 4 | 286 | 3.2 | 8.0 | 0.00 | 0.00 | 0.00 | 66 | 1014.7 |
| 20260503054503 | 4 | 289 | 3.2 | 6.4 | 0.00 | 0.00 | 0.00 | 65 | 1014.9 |
| 20260503054348 | 4 | 289 | 3.2 | 6.4 | 0.00 | 0.00 | 0.00 | 65 | 1014.8 |
| 20260503054003 | 4 | 290 | 3.2 | 6.4 | 0.00 | 0.00 | 0.00 | 65 | 1014.8 |
| 20260503053848 | 4 | 290 | 3.2 | 6.4 | 0.00 | 0.00 | 0.00 | 65 | 1014.9 |
| 20260503053503 | 4 | 290 | 3.2 | 6.4 | 0.00 | 0.00 | 0.00 | 66 | 1014.9 |
| 20260503053348 | 4 | 290 | 3.2 | 6.4 | 0.00 | 0.00 | 0.00 | 66 | 1014.9 |
| 20260503053003 | 3 | 290 | 3.2 | 6.4 | 0.00 | 0.00 | 0.00 | 66 | 1014.8 |
| 20260503052848 | 3 | 290 | 3.2 | 6.4 | 0.00 | 0.00 | 0.00 | 66 | 1014.8 |
| 20260503052502 | 3 | 290 | 3.2 | 4.8 | 0.00 | 0.00 | 0.00 | 66 | 1014.8 |
| 20260503052348 | 3 | 290 | 3.2 | 4.8 | 0.00 | 0.00 | 0.00 | 66 | 1015.0 |
| 20260503052003 | 3 | 290 | 3.2 | 4.8 | 0.00 | 0.00 | 0.00 | 67 | 1014.9 |
| 20260503051848 | 3 | 290 | 3.2 | 4.8 | 0.00 | 0.00 | 0.00 | 66 | 1014.9 |
| 20260503051503 | 3 | 290 | 3.2 | 4.8 | 0.00 | 0.00 | 0.00 | 67 | 1015.0 |
| 20260503051348 | 3 | 290 | 1.6 | 4.8 | 0.00 | 0.00 | 0.00 | 67 | 1015.1 |
| 20260503051003 | 3 | 290 | 1.6 | 4.8 | 0.00 | 0.00 | 0.00 | 67 | 1015.1 |
| 20260503050848 | 3 | 290 | 1.6 | 4.8 | 0.00 | 0.00 | 0.00 | 67 | 1015.0 |
| 20260503050524 | 3 | 290 | 1.6 | 4.8 | 0.00 | 0.00 | 0.00 | 67 | 1015.0 |
| 20260503050348 | 3 | 290 | 1.6 | 4.8 | 0.00 | 0.00 | 0.00 | 66 | 1015.0 |
| 20260503050005 | 3 | 290 | 3.2 | 4.8 | 0.00 | 0.00 | 0.00 | 66 | 1015.0 |
| 20260503045848 | 3 | 290 | 1.6 | 4.8 | 0.00 | 0.00 | 0.00 | 66 | 1015.0 |
| 20260503045503 | 3 | 290 | 1.6 | 4.8 | 0.00 | 0.00 | 0.00 | 66 | 1015.0 |
| 20260503045347 | 3 | 290 | 1.6 | 6.4 | 0.00 | 0.00 | 0.00 | 66 | 1015.0 |
| 20260503045024 | 3 | 290 | 1.6 | 6.4 | 0.00 | 0.00 | 0.00 | 66 | 1015.1 |
| 20260503044847 | 3 | 290 | 3.2 | 6.4 | 0.00 | 0.00 | 0.00 | 66 | 1015.1 |
| 20260503044503 | 3 | 290 | 1.6 | 6.4 | 0.00 | 0.00 | 0.00 | 66 | 1015.1 |
| 20260503044347 | 3 | 290 | 1.6 | 6.4 | 0.00 | 0.00 | 0.00 | 67 | 1015.0 |
| 20260503044003 | 3 | 290 | 0.0 | 6.4 | 0.00 | 0.00 | 0.00 | 67 | 1015.0 |
| 20260503043847 | 3 | 0 | 0.0 | 0.0 | 0.00 | 0.00 | 0.00 | 67 | 1015.0 |
| 20260503043503 | 3 | 290 | 0.0 | 3.2 | 0.00 | 0.00 | 0.00 | 67 | 1015.1 |
| 20260503043347 | 3 | 290 | 1.6 | 3.2 | 0.00 | 0.00 | 0.00 | 67 | 1015.1 |
| 20260503043004 | 3 | 290 | 1.6 | 3.2 | 0.00 | 0.00 | 0.00 | 67 | 1015.1 |
| 20260503042847 | 3 | 290 | 1.6 | 3.2 | 0.00 | 0.00 | 0.00 | 66 | 1015.1 |
| 20260503042525 | 3 | 290 | 1.6 | 3.2 | 0.00 | 0.00 | 0.00 | 66 | 1015.1 |
| 20260503042347 | 3 | 290 | 1.6 | 3.2 | 0.00 | 0.00 | 0.00 | 66 | 1015.2 |
| 20260503042003 | 3 | 290 | 1.6 | 3.2 | 0.00 | 0.00 | 0.00 | 66 | 1015.1 |
| 20260503041847 | 4 | 290 | 1.6 | 3.2 | 0.00 | 0.00 | 0.00 | 66 | 1015.1 |
| 20260503041502 | 4 | 290 | 1.6 | 3.2 | 0.00 | 0.00 | 0.00 | 65 | 1015.2 |
| 20260503041347 | 4 | 290 | 1.6 | 6.4 | 0.00 | 0.00 | 0.00 | 65 | 1015.2 |
| 20260503041003 | 4 | 290 | 1.6 | 6.4 | 0.00 | 0.00 | 0.00 | 65 | 1015.2 |
| 20260503040847 | 4 | 290 | 1.6 | 6.4 | 0.00 | 0.00 | 0.00 | 65 | 1015.2 |
| 20260503040503 | 4 | 290 | 1.6 | 6.4 | 0.00 | 0.00 | 0.00 | 65 | 1015.2 |
| 20260503040347 | 4 | 290 | 1.6 | 6.4 | 0.00 | 0.00 | 0.00 | 65 | 1015.2 |
| 20260503040003 | 4 | 291 | 1.6 | 6.4 | 0.00 | 0.00 | 0.00 | 65 | 1015.2 |
| 20260503035847 | 4 | 291 | 1.6 | 6.4 | 0.00 | 0.00 | 0.00 | 65 | 1015.2 |
| 20260503035524 | 4 | 291 | 3.2 | 6.4 | 0.00 | 0.00 | 0.00 | 65 | 1015.2 |
| 20260503035347 | 4 | 292 | 1.6 | 4.8 | 0.00 | 0.00 | 0.00 | 65 | 1015.3 |
| 20260503035004 | 4 | 292 | 1.6 | 4.8 | 0.00 | 0.00 | 0.00 | 66 | 1015.3 |
| 20260503034846 | 4 | 292 | 1.6 | 4.8 | 0.00 | 0.00 | 0.00 | 65 | 1015.2 |
| 20260503034503 | 4 | 292 | 0.0 | 4.8 | 0.00 | 0.00 | 0.00 | 66 | 1015.3 |
| 20260503034346 | 4 | 0 | 0.0 | 0.0 | 0.00 | 0.00 | 0.00 | 66 | 1015.2 |
| 20260503034003 | 4 | 0 | 0.0 | 0.0 | 0.00 | 0.00 | 0.00 | 66 | 1015.3 |
| 20260503033846 | 4 | 292 | 0.0 | 1.6 | 0.00 | 0.00 | 0.00 | 66 | 1015.3 |
| 20260503033504 | 4 | 292 | 1.6 | 4.8 | 0.00 | 0.00 | 0.00 | 66 | 1015.3 |
| 20260503033346 | 4 | 292 | 1.6 | 4.8 | 0.00 | 0.00 | 0.00 | 65 | 1015.3 |
| 20260503033003 | 4 | 292 | 1.6 | 4.8 | 0.00 | 0.00 | 0.00 | 65 | 1015.3 |
| 20260503032846 | 4 | 292 | 3.2 | 4.8 | 0.00 | 0.00 | 0.00 | 65 | 1015.4 |
| 20260503032504 | 4 | 292 | 3.2 | 4.8 | 0.00 | 0.00 | 0.00 | 65 | 1015.4 |
| 20260503032346 | 4 | 292 | 3.2 | 4.8 | 0.00 | 0.00 | 0.00 | 65 | 1015.3 |
| 20260503032003 | 4 | 292 | 3.2 | 4.8 | 0.00 | 0.00 | 0.00 | 65 | 1015.4 |
| 20260503031846 | 4 | 292 | 1.6 | 4.8 | 0.00 | 0.00 | 0.00 | 65 | 1015.4 |
| 20260503031504 | 3 | 292 | 1.6 | 4.8 | 0.00 | 0.00 | 0.00 | 66 | 1015.4 |
| 20260503031346 | 3 | 292 | 1.6 | 4.8 | 0.00 | 0.00 | 0.00 | 66 | 1015.4 |
| 20260503031003 | 3 | 292 | 1.6 | 4.8 | 0.00 | 0.00 | 0.00 | 66 | 1015.3 |
| 20260503030846 | 3 | 292 | 1.6 | 4.8 | 0.00 | 0.00 | 0.00 | 66 | 1015.4 |
| 20260503030503 | 3 | 292 | 1.6 | 4.8 | 0.00 | 0.00 | 0.00 | 66 | 1015.4 |
| 20260503030346 | 3 | 292 | 1.6 | 4.8 | 0.00 | 0.00 | 0.00 | 66 | 1015.5 |
| 20260503030004 | 3 | 292 | 1.6 | 4.8 | 0.00 | 0.00 | 0.00 | 66 | 1015.4 |
| 20260503025846 | 3 | 292 | 1.6 | 4.8 | 0.00 | 0.00 | 0.00 | 66 | 1015.5 |
| 20260503025503 | 3 | 292 | 1.6 | 3.2 | 0.00 | 0.00 | 0.00 | 66 | 1015.5 |
| 20260503025346 | 3 | 292 | 1.6 | 3.2 | 0.00 | 0.00 | 0.00 | 66 | 1015.5 |
| 20260503025003 | 3 | 292 | 1.6 | 3.2 | 0.00 | 0.00 | 0.00 | 66 | 1015.5 |
| 20260503024846 | 3 | 292 | 1.6 | 3.2 | 0.00 | 0.00 | 0.00 | 66 | 1015.5 |
| 20260503024503 | 3 | 292 | 1.6 | 3.2 | 0.00 | 0.00 | 0.00 | 66 | 1015.6 |
| 20260503024346 | 3 | 292 | 0.0 | 3.2 | 0.00 | 0.00 | 0.00 | 66 | 1015.6 |
| 20260503024003 | 3 | 292 | 0.0 | 1.6 | 0.00 | 0.00 | 0.00 | 66 | 1015.6 |
| 20260503023845 | 4 | 292 | 0.0 | 1.6 | 0.00 | 0.00 | 0.00 | 66 | 1015.7 |
| 20260503023503 | 4 | 292 | 0.0 | 1.6 | 0.00 | 0.00 | 0.00 | 65 | 1015.7 |
| 20260503023345 | 4 | 292 | 0.0 | 1.6 | 0.00 | 0.00 | 0.00 | 65 | 1015.6 |
| 20260503023003 | 4 | 0 | 0.0 | 0.0 | 0.00 | 0.00 | 0.00 | 65 | 1015.8 |
| 20260503022845 | 4 | 0 | 0.0 | 0.0 | 0.00 | 0.00 | 0.00 | 65 | 1015.7 |
| 20260503022503 | 4 | 0 | 0.0 | 0.0 | 0.00 | 0.00 | 0.00 | 64 | 1015.7 |
| 20260503022345 | 4 | 0 | 0.0 | 0.0 | 0.00 | 0.00 | 0.00 | 64 | 1015.8 |
| 20260503022003 | 4 | 0 | 0.0 | 0.0 | 0.00 | 0.00 | 0.00 | 64 | 1015.8 |
| 20260503021845 | 4 | 0 | 0.0 | 0.0 | 0.00 | 0.00 | 0.00 | 63 | 1015.7 |
| 20260503021503 | 4 | 0 | 0.0 | 0.0 | 0.00 | 0.00 | 0.00 | 63 | 1015.7 |
| 20260503021345 | 4 | 0 | 0.0 | 0.0 | 0.00 | 0.00 | 0.00 | 63 | 1015.7 |
| 20260503021003 | 4 | 0 | 0.0 | 0.0 | 0.00 | 0.00 | 0.00 | 62 | 1015.8 |
| 20260503020845 | 5 | 0 | 0.0 | 0.0 | 0.00 | 0.00 | 0.00 | 62 | 1015.7 |
| 20260503020503 | 5 | 0 | 0.0 | 0.0 | 0.00 | 0.00 | 0.00 | 62 | 1015.7 |
| 20260503020345 | 5 | 0 | 0.0 | 0.0 | 0.00 | 0.00 | 0.00 | 62 | 1015.7 |
| 20260503020004 | 5 | 0 | 0.0 | 0.0 | 0.00 | 0.00 | 0.00 | 61 | 1015.7 |
| 20260503015845 | 5 | 0 | 0.0 | 0.0 | 0.00 | 0.00 | 0.00 | 61 | 1015.7 |
| 20260503015524 | 5 | 0 | 0.0 | 0.0 | 0.00 | 0.00 | 0.00 | 61 | 1015.6 |
| 20260503015345 | 5 | 0 | 0.0 | 0.0 | 0.00 | 0.00 | 0.00 | 61 | 1015.6 |
| 20260503015003 | 5 | 0 | 0.0 | 0.0 | 0.00 | 0.00 | 0.00 | 60 | 1015.7 |
| 20260503014845 | 5 | 0 | 0.0 | 0.0 | 0.00 | 0.00 | 0.00 | 60 | 1015.7 |
| 20260503014525 | 5 | 0 | 0.0 | 0.0 | 0.00 | 0.00 | 0.00 | 59 | 1015.7 |
| 20260503014345 | 5 | 0 | 0.0 | 0.0 | 0.00 | 0.00 | 0.00 | 59 | 1015.6 |
| 20260503014003 | 5 | 0 | 0.0 | 0.0 | 0.00 | 0.00 | 0.00 | 59 | 1015.6 |
| 20260503013845 | 5 | 0 | 0.0 | 0.0 | 0.00 | 0.00 | 0.00 | 59 | 1015.6 |
| 20260503013524 | 5 | 0 | 0.0 | 0.0 | 0.00 | 0.00 | 0.00 | 58 | 1015.6 |
| 20260503013345 | 6 | 292 | 0.0 | 1.6 | 0.00 | 0.00 | 0.00 | 57 | 1015.6 |
| 20260503013004 | 6 | 292 | 0.0 | 1.6 | 0.00 | 0.00 | 0.00 | 57 | 1015.5 |
| 20260503012844 | 6 | 292 | 0.0 | 1.6 | 0.00 | 0.00 | 0.00 | 57 | 1015.6 |
| 20260503012503 | 6 | 292 | 0.0 | 1.6 | 0.00 | 0.00 | 0.00 | 57 | 1015.5 |
| 20260503012344 | 6 | 292 | 0.0 | 1.6 | 0.00 | 0.00 | 0.00 | 56 | 1015.5 |
| 20260503012024 | 6 | 0 | 0.0 | 0.0 | 0.00 | 0.00 | 0.00 | 56 | 1015.5 |
| 20260503011844 | 6 | 0 | 0.0 | 0.0 | 0.00 | 0.00 | 0.00 | 56 | 1015.5 |
| 20260503011503 | 6 | 0 | 0.0 | 0.0 | 0.00 | 0.00 | 0.00 | 54 | 1015.5 |
| 20260503011344 | 6 | 0 | 0.0 | 0.0 | 0.00 | 0.00 | 0.00 | 54 | 1015.5 |
| 20260503011004 | 6 | 0 | 0.0 | 0.0 | 0.00 | 0.00 | 0.00 | 53 | 1015.5 |
| 20260503010844 | 6 | 0 | 0.0 | 0.0 | 0.00 | 0.00 | 0.00 | 53 | 1015.5 |
| 20260503010504 | 7 | 0 | 0.0 | 0.0 | 0.00 | 0.00 | 0.00 | 52 | 1015.5 |
| 20260503010344 | 7 | 0 | 0.0 | 0.0 | 0.00 | 0.00 | 0.00 | 51 | 1015.5 |
| 20260503010003 | 7 | 0 | 0.0 | 0.0 | 0.00 | 0.00 | 0.00 | 51 | 1015.5 |
| 20260503005844 | 7 | 0 | 0.0 | 0.0 | 0.00 | 0.00 | 0.00 | 51 | 1015.5 |
| 20260503005503 | 7 | 0 | 0.0 | 0.0 | 0.00 | 0.00 | 0.00 | 50 | 1015.4 |
| 20260503005344 | 7 | 0 | 0.0 | 0.0 | 0.00 | 0.00 | 0.00 | 50 | 1015.4 |
| 20260503005004 | 7 | 0 | 0.0 | 0.0 | 0.00 | 0.00 | 0.00 | 50 | 1015.4 |
| 20260503004844 | 7 | 0 | 0.0 | 0.0 | 0.00 | 0.00 | 0.00 | 49 | 1015.4 |
| 20260503004503 | 7 | 292 | 0.0 | 3.2 | 0.00 | 0.00 | 0.00 | 49 | 1015.4 |
| 20260503004344 | 8 | 292 | 0.0 | 3.2 | 0.00 | 0.00 | 0.00 | 49 | 1015.4 |
| 20260503004003 | 8 | 292 | 0.0 | 3.2 | 0.00 | 0.00 | 0.00 | 48 | 1015.4 |
| 20260503003844 | 8 | 292 | 0.0 | 3.2 | 0.00 | 0.00 | 0.00 | 48 | 1015.4 |
| 20260503003500 | 8 | 292 | 0.0 | 3.2 | 0.00 | 0.00 | 0.00 | 48 | 1015.4 |
| 20260503003314 | 8 | 292 | 1.6 | 3.2 | 0.00 | 0.00 | 0.00 | 48 | 1015.4 |
| 20260503003022 | 8 | 292 | 1.6 | 6.4 | 0.00 | 0.00 | 0.00 | 48 | 1015.4 |
| 20260503002814 | 8 | 282 | 4.8 | 12.9 | 0.00 | 0.00 | 0.00 | 47 | 1015.4 |
| 20260503002522 | 8 | 288 | 4.8 | 12.9 | 0.00 | 0.00 | 0.00 | 47 | 1015.4 |
| 20260503002313 | 8 | 290 | 6.4 | 12.9 | 0.00 | 0.03 | 0.00 | 47 | 1015.4 |
| 20260503002001 | 8 | 291 | 4.8 | 12.9 | 0.00 | 0.03 | 0.00 | 47 | 1015.3 |
| 20260503001813 | 8 | 303 | 4.8 | 12.9 | 0.00 | 0.03 | 0.00 | 46 | 1015.3 |
| 20260503001502 | 8 | 304 | 4.8 | 11.3 | 0.00 | 0.03 | 0.00 | 46 | 1015.3 |
| 20260503001313 | 8 | 307 | 4.8 | 11.3 | 0.00 | 0.03 | 0.00 | 47 | 1015.3 |
| 20260503001001 | 8 | 307 | 4.8 | 9.7 | 0.00 | 0.03 | 0.00 | 46 | 1015.3 |
| 20260503000813 | 8 | 300 | 4.8 | 9.7 | 0.00 | 0.03 | 0.00 | 46 | 1015.3 |
| 20260503000522 | 8 | 288 | 4.8 | 11.3 | 0.00 | 0.03 | 0.00 | 46 | 1015.4 |
| 20260503000313 | 9 | 282 | 6.4 | 11.3 | 0.00 | 0.03 | 0.00 | 45 | 1015.3 |
| 20260503000001 | 9 | 280 | 6.4 | 11.3 | 0.00 | 0.03 | 0.00 | 47 | 1015.3 |
| 20260502235813 | 9 | 283 | 6.4 | 11.3 | 0.00 | 0.03 | 0.00 | 47 | 1015.5 |
| 20260502235501 | 9 | 288 | 4.8 | 11.3 | 0.00 | 0.03 | 0.00 | 47 | 1015.4 |
| 20260502235313 | 9 | 285 | 4.8 | 11.3 | 0.00 | 0.03 | 0.00 | 47 | 1015.4 |
| 20260502235022 | 9 | 284 | 4.8 | 11.3 | 0.00 | 0.03 | 0.00 | 47 | 1015.3 |
| 20260502234813 | 9 | 282 | 4.8 | 11.3 | 0.00 | 0.03 | 0.00 | 47 | 1015.4 |
| 20260502234501 | 9 | 284 | 4.8 | 12.9 | 0.00 | 0.03 | 0.00 | 48 | 1015.3 |
| 20260502234313 | 9 | 285 | 4.8 | 14.5 | 0.00 | 0.03 | 0.00 | 49 | 1015.4 |
| 20260502234001 | 9 | 282 | 6.4 | 14.5 | 0.00 | 0.03 | 0.00 | 52 | 1015.4 |
| 20260502233813 | 9 | 282 | 6.4 | 14.5 | 0.00 | 0.03 | 0.00 | 50 | 1015.5 |
| 20260502233501 | 9 | 285 | 6.4 | 16.1 | 0.00 | 0.03 | 0.00 | 48 | 1015.4 |
| 20260502233313 | 9 | 288 | 8.0 | 16.1 | 0.00 | 0.03 | 0.00 | 48 | 1015.5 |
| 20260502233001 | 9 | 295 | 8.0 | 16.1 | 0.00 | 0.03 | 0.00 | 47 | 1015.4 |
| 20260502232813 | 9 | 300 | 8.0 | 16.1 | 0.00 | 0.03 | 0.00 | 47 | 1015.5 |
| 20260502232501 | 8 | 302 | 8.0 | 16.1 | 0.00 | 0.03 | 0.00 | 47 | 1015.5 |
| 20260502232312 | 9 | 303 | 6.4 | 16.1 | 0.00 | 0.03 | 0.00 | 48 | 1015.5 |
| 20260502232001 | 9 | 306 | 6.4 | 12.9 | 0.00 | 0.03 | 0.00 | 47 | 1015.4 |
| 20260502231812 | 9 | 303 | 6.4 | 12.9 | 0.00 | 0.03 | 0.00 | 45 | 1015.4 |
| 20260502231522 | 9 | 302 | 8.0 | 12.9 | 0.00 | 0.03 | 0.00 | 46 | 1015.4 |
| 20260502231312 | 9 | 303 | 8.0 | 12.9 | 0.00 | 0.03 | 0.00 | 45 | 1015.4 |
| 20260502231001 | 9 | 289 | 8.0 | 16.1 | 0.00 | 0.03 | 0.00 | 46 | 1015.4 |
| 20260502230812 | 9 | 282 | 9.7 | 17.7 | 0.00 | 0.03 | 0.00 | 46 | 1015.4 |
| 20260502230522 | 9 | 276 | 9.7 | 19.3 | 0.00 | 0.03 | 0.00 | 46 | 1015.4 |
| 20260502230312 | 9 | 276 | 9.7 | 19.3 | 0.00 | 0.03 | 0.00 | 48 | 1015.5 |
| 20260502230002 | 9 | 281 | 8.0 | 19.3 | 0.00 | 0.03 | 0.00 | 49 | 1015.4 |
| 20260502225812 | 9 | 286 | 4.8 | 19.3 | 0.00 | 0.03 | 0.00 | 49 | 1015.5 |
| 20260502225523 | 9 | 291 | 4.8 | 14.5 | 0.00 | 0.03 | 0.00 | 48 | 1015.4 |
| 20260502225312 | 9 | 286 | 4.8 | 9.7 | 0.00 | 0.03 | 0.00 | 48 | 1015.5 |
| 20260502225022 | 9 | 296 | 4.8 | 11.3 | 0.00 | 0.03 | 0.00 | 52 | 1015.5 |
| 20260502224812 | 9 | 305 | 6.4 | 12.9 | 0.00 | 0.03 | 0.00 | 48 | 1015.4 |
| 20260502224502 | 9 | 308 | 6.4 | 12.9 | 0.00 | 0.03 | 0.00 | 51 | 1015.6 |
| 20260502224312 | 9 | 307 | 6.4 | 12.9 | 0.00 | 0.03 | 0.00 | 46 | 1015.5 |
| 20260502224002 | 9 | 297 | 6.4 | 12.9 | 0.00 | 0.03 | 0.00 | 47 | 1015.5 |
| 20260502223812 | 9 | 287 | 6.4 | 12.9 | 0.00 | 0.03 | 0.00 | 48 | 1015.5 |
| 20260502223501 | 9 | 283 | 6.4 | 16.1 | 0.00 | 0.03 | 0.00 | 48 | 1015.5 |
| 20260502223312 | 9 | 277 | 8.0 | 16.1 | 0.00 | 0.03 | 0.00 | 48 | 1015.6 |
| 20260502223001 | 9 | 270 | 8.0 | 16.1 | 0.00 | 0.03 | 0.00 | 48 | 1015.5 |
| 20260502222812 | 9 | 274 | 8.0 | 16.1 | 0.00 | 0.03 | 0.00 | 48 | 1015.5 |
| 20260502222501 | 9 | 276 | 8.0 | 14.5 | 0.00 | 0.03 | 0.00 | 48 | 1015.5 |
| 20260502222312 | 9 | 286 | 8.0 | 16.1 | 0.00 | 0.03 | 0.00 | 48 | 1015.5 |
| 20260502222001 | 9 | 290 | 6.4 | 16.1 | 0.00 | 0.03 | 0.00 | 47 | 1015.6 |
| 20260502221811 | 9 | 292 | 6.4 | 16.1 | 0.00 | 0.03 | 0.00 | 48 | 1015.5 |
| 20260502221501 | 9 | 286 | 8.0 | 16.1 | 0.00 | 0.03 | 0.00 | 47 | 1015.5 |
| 20260502221311 | 9 | 286 | 8.0 | 14.5 | 0.00 | 0.03 | 0.00 | 48 | 1015.5 |
| 20260502221023 | 9 | 292 | 8.0 | 14.5 | 0.00 | 0.03 | 0.00 | 48 | 1015.6 |
| 20260502220811 | 9 | 288 | 8.0 | 16.1 | 0.00 | 0.03 | 0.00 | 48 | 1015.5 |
| 20260502220501 | 8 | 302 | 9.7 | 16.1 | 0.00 | 0.03 | 0.00 | 47 | 1015.6 |
| 20260502220311 | 8 | 306 | 9.7 | 16.1 | 0.00 | 0.03 | 0.00 | 48 | 1015.5 |
| 20260502220001 | 8 | 302 | 11.3 | 20.9 | 0.00 | 0.03 | 0.00 | 46 | 1015.6 |
| 20260502215811 | 9 | 304 | 9.7 | 20.9 | 0.00 | 0.03 | 0.00 | 45 | 1015.6 |
| 20260502215523 | 9 | 303 | 9.7 | 20.9 | 0.00 | 0.03 | 0.00 | 45 | 1015.7 |
| 20260502215311 | 9 | 299 | 9.7 | 20.9 | 0.00 | 0.03 | 0.00 | 46 | 1015.6 |
| 20260502215001 | 9 | 300 | 9.7 | 17.7 | 0.00 | 0.03 | 0.00 | 45 | 1015.5 |
| 20260502214811 | 10 | 298 | 9.7 | 17.7 | 0.00 | 0.03 | 0.00 | 46 | 1015.6 |
| 20260502214501 | 10 | 282 | 9.7 | 17.7 | 0.00 | 0.03 | 0.00 | 46 | 1015.6 |
| 20260502214311 | 10 | 278 | 9.7 | 17.7 | 0.00 | 0.03 | 0.00 | 47 | 1015.6 |
| 20260502214001 | 10 | 273 | 11.3 | 17.7 | 0.00 | 0.03 | 0.00 | 47 | 1015.7 |
| 20260502213811 | 10 | 269 | 11.3 | 17.7 | 0.00 | 0.03 | 0.00 | 49 | 1015.6 |
| 20260502213501 | 10 | 274 | 11.3 | 17.7 | 0.00 | 0.03 | 0.00 | 50 | 1015.6 |
| 20260502213311 | 10 | 276 | 11.3 | 20.9 | 0.00 | 0.03 | 0.00 | 47 | 1015.5 |
| 20260502213002 | 10 | 278 | 11.3 | 20.9 | 0.00 | 0.03 | 0.00 | 46 | 1015.5 |
| 20260502212811 | 10 | 279 | 9.7 | 20.9 | 0.00 | 0.03 | 0.00 | 46 | 1015.5 |
| 20260502212501 | 10 | 278 | 9.7 | 20.9 | 0.00 | 0.03 | 0.00 | 47 | 1015.6 |
| 20260502212311 | 10 | 276 | 9.7 | 22.5 | 0.00 | 0.03 | 0.00 | 46 | 1015.5 |
| 20260502212001 | 10 | 278 | 9.7 | 22.5 | 0.00 | 0.03 | 0.00 | 49 | 1015.6 |
| 20260502211811 | 10 | 282 | 9.7 | 22.5 | 0.00 | 0.03 | 0.00 | 54 | 1015.6 |
| 20260502211523 | 9 | 287 | 9.7 | 22.5 | 0.00 | 0.03 | 0.00 | 53 | 1015.6 |
| 20260502211311 | 9 | 292 | 8.0 | 17.7 | 0.00 | 0.03 | 0.00 | 48 | 1015.6 |
| 20260502211001 | 9 | 290 | 8.0 | 17.7 | 0.00 | 0.03 | 0.00 | 46 | 1015.6 |
| 20260502210811 | 9 | 286 | 9.7 | 19.3 | 0.00 | 0.03 | 0.00 | 47 | 1015.6 |
| 20260502210501 | 9 | 288 | 11.3 | 19.3 | 0.00 | 0.03 | 0.00 | 47 | 1015.6 |
| 20260502210310 | 9 | 288 | 11.3 | 19.3 | 0.00 | 0.03 | 0.00 | 47 | 1015.6 |
| 20260502210023 | 9 | 292 | 9.7 | 19.3 | 0.00 | 0.03 | 0.00 | 47 | 1015.6 |
| 20260502205810 | 8 | 298 | 9.7 | 19.3 | 0.00 | 0.03 | 0.00 | 46 | 1015.5 |
| 20260502205501 | 9 | 303 | 9.7 | 19.3 | 0.00 | 0.03 | 0.00 | 45 | 1015.6 |
| 20260502205310 | 9 | 305 | 11.3 | 19.3 | 0.00 | 0.03 | 0.00 | 45 | 1015.6 |
| 20260502205002 | 9 | 310 | 9.7 | 19.3 | 0.00 | 0.03 | 0.00 | 45 | 1015.6 |
| 20260502204810 | 9 | 305 | 9.7 | 19.3 | 0.00 | 0.03 | 0.00 | 45 | 1015.6 |
| 20260502204502 | 9 | 288 | 9.7 | 20.9 | 0.00 | 0.03 | 0.00 | 46 | 1015.5 |
| 20260502204310 | 9 | 280 | 9.7 | 20.9 | 0.00 | 0.03 | 0.00 | 45 | 1015.6 |
| 20260502204022 | 9 | 275 | 9.7 | 20.9 | 0.00 | 0.03 | 0.00 | 46 | 1015.5 |
| 20260502203810 | 9 | 284 | 11.3 | 20.9 | 0.00 | 0.03 | 0.00 | 46 | 1015.6 |
| 20260502203501 | 9 | 302 | 11.3 | 25.7 | 0.00 | 0.03 | 0.00 | 46 | 1015.7 |
| 20260502203310 | 9 | 311 | 9.7 | 25.7 | 0.00 | 0.03 | 0.00 | 46 | 1015.6 |
| 20260502203002 | 9 | 311 | 9.7 | 25.7 | 0.00 | 0.03 | 0.00 | 45 | 1015.6 |
| 20260502202810 | 9 | 309 | 9.7 | 25.7 | 0.00 | 0.03 | 0.00 | 43 | 1015.7 |
| 20260502202501 | 9 | 310 | 9.7 | 17.7 | 0.00 | 0.03 | 0.00 | 45 | 1015.7 |
| 20260502202310 | 9 | 310 | 9.7 | 19.3 | 0.00 | 0.03 | 0.00 | 46 | 1015.8 |
| 20260502202001 | 9 | 313 | 11.3 | 19.3 | 0.00 | 0.03 | 0.00 | 44 | 1015.8 |
| 20260502201810 | 9 | 308 | 11.3 | 19.3 | 0.00 | 0.03 | 0.00 | 43 | 1015.9 |
| 20260502201523 | 10 | 299 | 11.3 | 19.3 | 0.00 | 0.03 | 0.00 | 44 | 1015.8 |
| 20260502201310 | 10 | 296 | 9.7 | 19.3 | 0.00 | 0.03 | 0.00 | 46 | 1015.9 |
| 20260502201002 | 10 | 286 | 9.7 | 19.3 | 0.00 | 0.03 | 0.00 | 45 | 1016.0 |
| 20260502200810 | 10 | 284 | 9.7 | 19.3 | 0.00 | 0.03 | 0.00 | 45 | 1016.0 |
| 20260502200501 | 10 | 280 | 11.3 | 20.9 | 0.00 | 0.03 | 0.00 | 44 | 1016.0 |
| 20260502200310 | 10 | 279 | 12.9 | 20.9 | 0.00 | 0.03 | 0.00 | 44 | 1016.1 |
| 20260502200022 | 10 | 277 | 12.9 | 20.9 | 0.00 | 0.03 | 0.00 | 44 | 1016.1 |
| 20260502195810 | 10 | 277 | 11.3 | 20.9 | 0.00 | 0.03 | 0.00 | 44 | 1016.1 |
| 20260502195522 | 10 | 277 | 11.3 | 19.3 | 0.00 | 0.03 | 0.00 | 44 | 1016.0 |
| 20260502195309 | 10 | 276 | 11.3 | 19.3 | 0.00 | 0.03 | 0.00 | 44 | 1016.1 |
| 20260502195002 | 10 | 280 | 11.3 | 19.3 | 0.00 | 0.03 | 0.00 | 44 | 1016.1 |
| 20260502194809 | 10 | 282 | 11.3 | 20.9 | 0.00 | 0.03 | 0.00 | 44 | 1016.1 |
| 20260502194522 | 10 | 285 | 11.3 | 20.9 | 0.00 | 0.03 | 0.00 | 45 | 1016.1 |
| 20260502194309 | 10 | 288 | 9.7 | 20.9 | 0.00 | 0.03 | 0.00 | 44 | 1016.2 |